Time,TemperatureF,DewpointF,PressureIn,WindDirection,WindDirectionDegrees,WindSpeedMPH,WindSpeedGustMPH,Humidity,HourlyPrecipIn,Conditions,Clouds,dailyrainin,SolarRadiationWatts/m^2,SoftwareType,DateUTC
2013-07-23 00:01:00,53.0,50.0,-100.00,South,181,1.0,2.0,91,-99.99,,,0.00,0.000000,,2013-07-23 07:01:00,
2013-07-23 01:01:00,51.0,49.0,-100.00,ENE,64,1.0,3.0,94,0.00,,,0.00,0.000000,,2013-07-23 08:01:00,
2013-07-23 01:33:00,50.0,48.0,-100.00,ENE,69,1.0,3.0,94,-99.99,,,0.00,0.000000,,2013-07-23 08:33:00,
2013-07-23 01:43:00,50.0,48.0,-100.00,ENE,69,1.0,3.0,94,-99.99,,,0.00,0.000000,,2013-07-23 08:43:00,
2013-07-23 02:43:00,50.0,49.0,-100.00,ENE,70,1.0,4.0,96,-99.99,,,0.00,0.000000,,2013-07-23 09:43:00,
2013-07-23 02:53:00,50.0,49.0,-100.00,ENE,70,1.0,4.0,96,-99.99,,,0.00,0.000000,,2013-07-23 09:53:00,
2013-07-23 03:32:00,49.0,48.0,-100.00,East,101,1.0,4.0,96,0.00,,,0.00,0.000000,,2013-07-23 10:32:00,
2013-07-23 03:44:00,49.0,48.0,-100.00,East,101,1.0,4.0,96,0.00,,,0.00,0.000000,,2013-07-23 10:44:00,
2013-07-23 03:52:00,49.0,48.0,-100.00,East,101,1.0,4.0,96,0.00,,,0.00,0.000000,,2013-07-23 10:52:00,
2013-07-23 04:01:00,49.0,48.0,-100.00,East,101,1.0,4.0,96,0.00,,,0.00,0.000000,,2013-07-23 11:01:00,
2013-07-23 04:43:00,46.0,45.0,-100.00,East,81,1.0,3.0,96,0.00,,,0.00,0.000000,,2013-07-23 11:43:00,
2013-07-23 05:33:00,47.0,46.0,-100.00,ENE,69,1.0,4.0,97,0.00,,,0.00,0.000000,,2013-07-23 12:33:00,
2013-07-23 05:43:00,47.0,46.0,-100.00,ENE,69,1.0,4.0,97,0.00,,,0.00,0.000000,,2013-07-23 12:43:00,
2013-07-23 06:01:00,47.0,46.0,-100.00,ENE,69,1.0,4.0,97,0.00,,,0.00,0.000000,,2013-07-23 13:01:00,
2013-07-23 06:32:00,46.0,45.0,-100.00,NE,50,1.0,4.0,97,0.00,,,0.00,3.000000,,2013-07-23 13:32:00,
2013-07-23 06:43:00,46.0,45.0,-100.00,NE,50,1.0,4.0,97,0.00,,,0.00,3.000000,,2013-07-23 13:43:00,
2013-07-23 06:52:00,46.0,45.0,-100.00,NE,50,1.0,4.0,97,0.00,,,0.00,3.000000,,2013-07-23 13:52:00,
2013-07-23 07:02:00,46.0,45.0,-100.00,NE,50,1.0,4.0,97,0.00,,,0.00,3.000000,,2013-07-23 14:02:00,
2013-07-23 07:44:00,47.0,46.0,-100.00,WNW,289,1.0,5.0,98,-99.99,,,0.00,19.000000,,2013-07-23 14:44:00,
2013-07-23 08:43:00,49.0,48.0,-100.00,SSW,199,2.0,5.0,97,0.00,,,0.00,35.000000,,2013-07-23 15:43:00,
2013-07-23 09:33:00,64.0,50.0,-100.00,WNW,290,1.0,4.0,60,-99.99,,,0.00,321.000000,,2013-07-23 16:33:00,
2013-07-23 09:43:00,64.0,50.0,-100.00,WNW,290,1.0,4.0,60,-99.99,,,0.00,321.000000,,2013-07-23 16:43:00,
2013-07-23 09:52:00,64.0,50.0,-100.00,WNW,290,1.0,4.0,60,-99.99,,,0.00,321.000000,,2013-07-23 16:52:00,
2013-07-23 10:02:00,64.0,50.0,-100.00,WNW,290,1.0,4.0,60,-99.99,,,0.00,321.000000,,2013-07-23 17:02:00,
2013-07-23 10:42:00,79.0,48.0,-100.00,South,172,2.0,4.0,34,-99.99,,,0.00,845.000000,,2013-07-23 17:42:00,
2013-07-23 10:55:00,79.0,48.0,-100.00,South,172,2.0,4.0,34,-99.99,,,0.00,845.000000,,2013-07-23 17:55:00,
2013-07-23 11:02:00,79.0,48.0,-100.00,South,172,2.0,4.0,34,-99.99,,,0.00,845.000000,,2013-07-23 18:02:00,
2013-07-23 11:48:00,82.0,49.0,-100.00,West,273,3.0,9.0,32,0.00,,,0.00,1034.000000,,2013-07-23 18:48:00,
2013-07-23 11:55:00,82.0,49.0,-100.00,West,273,3.0,9.0,32,0.00,,,0.00,1034.000000,,2013-07-23 18:55:00,
2013-07-23 12:01:00,82.0,49.0,-100.00,West,273,3.0,9.0,32,0.00,,,0.00,1034.000000,,2013-07-23 19:01:00,
2013-07-23 12:47:00,87.0,51.0,-100.00,North,0,3.0,11.0,29,0.00,,,0.00,1157.000000,,2013-07-23 19:47:00,
2013-07-23 12:55:00,87.0,51.0,-100.00,North,0,3.0,11.0,29,0.00,,,0.00,1157.000000,,2013-07-23 19:55:00,
2013-07-23 13:47:00,88.0,48.0,-100.00,West,263,3.0,14.0,25,0.00,,,-99.99,1232.000000,,2013-07-23 20:47:00,
2013-07-23 13:58:00,88.0,48.0,-100.00,West,263,3.0,14.0,25,0.00,,,-99.99,1232.000000,,2013-07-23 20:58:00,
2013-07-23 14:47:00,93.0,48.0,-100.00,North,10,3.0,13.0,22,0.00,,,0.00,1247.000000,,2013-07-23 21:47:00,
2013-07-23 14:56:00,93.0,48.0,-100.00,North,10,3.0,13.0,22,0.00,,,0.00,1247.000000,,2013-07-23 21:56:00,
2013-07-23 15:47:00,94.0,51.0,-100.00,NE,36,3.0,14.0,23,-99.99,,,0.00,1176.000000,,2013-07-23 22:47:00,
2013-07-23 15:58:00,94.0,51.0,-100.00,NE,36,3.0,14.0,23,-99.99,,,0.00,1176.000000,,2013-07-23 22:58:00,
2013-07-23 17:50:00,94.0,51.0,-100.00,NNW,327,2.0,14.0,23,-99.99,,,0.00,860.000000,,2013-07-24 00:50:00,
2013-07-23 19:40:00,81.0,55.0,-100.00,South,176,2.0,9.0,41,-99.99,,,0.00,293.000000,,2013-07-24 02:40:00,
2013-07-23 19:48:00,81.0,55.0,-100.00,South,176,2.0,9.0,41,-99.99,,,0.00,293.000000,,2013-07-24 02:48:00,
2013-07-23 19:56:00,81.0,55.0,-100.00,South,176,2.0,9.0,41,-99.99,,,0.00,293.000000,,2013-07-24 02:56:00,
2013-07-23 20:02:00,81.0,55.0,-100.00,South,176,2.0,9.0,41,-99.99,,,0.00,293.000000,,2013-07-24 03:02:00,
2013-07-23 20:39:00,73.0,55.0,-100.00,West,259,2.0,8.0,53,0.00,,,0.00,79.000000,,2013-07-24 03:39:00,
2013-07-23 20:46:00,73.0,55.0,-100.00,West,259,2.0,8.0,53,0.00,,,0.00,79.000000,,2013-07-24 03:46:00,
2013-07-23 20:56:00,73.0,55.0,-100.00,West,259,2.0,8.0,53,0.00,,,0.00,79.000000,,2013-07-24 03:56:00,
2013-07-23 21:01:00,73.0,55.0,-100.00,West,259,2.0,8.0,53,0.00,,,0.00,79.000000,,2013-07-24 04:01:00,
2013-07-23 21:53:00,67.0,54.0,-100.00,SE,134,1.0,7.0,63,0.00,,,0.00,6.000000,,2013-07-24 04:53:00,
2013-07-23 22:02:00,67.0,54.0,-100.00,SE,134,1.0,7.0,63,0.00,,,0.00,6.000000,,2013-07-24 05:02:00,
2013-07-23 23:01:00,62.0,54.0,-100.00,NE,56,1.0,5.0,74,0.00,,,-99.99,0.000000,,2013-07-24 06:01:00,